This is the latest recevied weather packets stored in our database for station/object NK7E. If no packets are shown the sender has not sent any weather packets the latest 10 day(s).
| Time | Temp. | Humidity | Pressure | Rain* | Wind** | Luminosity | Snow |
|---|---|---|---|---|---|---|---|
| 1777940117 | 20° C | 46% | 1013.8 hPa | 0 mm | - | 29 W/m² | - |
| 1777939517 | 20.56° C | 44% | 1013.5 hPa | 0 mm | - | 30 W/m² | - |
| 1777938917 | 20.56° C | 42% | 1013 hPa | 0 mm | - | 34 W/m² | - |
| 1777938317 | 20.56° C | 43% | 1013.1 hPa | 0 mm | - | 33 W/m² | - |
| 1777937717 | 20.56° C | 42% | 1013.7 hPa | 0 mm | - | 60 W/m² | - |
| 1777937117 | 21.67° C | 41% | 1014.1 hPa | 0 mm | - | 45 W/m² | - |
| 1777936517 | 22.78° C | 34% | 1013.9 hPa | 0 mm | - | 53 W/m² | - |
| 1777935917 | 23.33° C | 28% | 1013.6 hPa | 0 mm | - | 50 W/m² | - |
| 1777935317 | 23.89° C | 26% | 1013.4 hPa | 0 mm | - | 62 W/m² | - |
| 1777934717 | 24.44° C | 26% | 1013.1 hPa | 0 mm | - | 64 W/m² | - |
| 1777934117 | 24.44° C | 23% | 1013.1 hPa | 0 mm | - | 88 W/m² | - |
| 1777933517 | 25° C | 23% | 1013 hPa | 0 mm | - | 120 W/m² | - |
| 1777932917 | 25° C | 22% | 1013.1 hPa | 0 mm | - | 168 W/m² | - |
| 1777932317 | 25° C | 21% | 1013.3 hPa | 0 mm | - | 184 W/m² | - |
| 1777931717 | 25.56° C | 21% | 1013.2 hPa | 0 mm | - | 261 W/m² | - |
| 1777931117 | 25.56° C | 21% | 1013.1 hPa | 0 mm | - | 384 W/m² | - |
| 1777930517 | 25.56° C | 23% | 1012.8 hPa | 0 mm | - | 449 W/m² | - |
| 1777929917 | 25.56° C | 22% | 1012.9 hPa | 0 mm | - | 435 W/m² | - |
| 1777929317 | 26.11° C | 23% | 1013 hPa | 0 mm | - | 458 W/m² | - |
| 1777928717 | 26.11° C | 19% | 1013.2 hPa | 0 mm | - | 275 W/m² | - |
| 1777928117 | 26.11° C | 19% | 1013.2 hPa | 0 mm | - | 293 W/m² | - |
| 1777927517 | 26.11° C | 19% | 1013.2 hPa | 0 mm | - | 325 W/m² | - |
| 1777926917 | 26.67° C | 19% | 1013.2 hPa | 0 mm | - | 340 W/m² | - |
| 1777926317 | 26.67° C | 19% | 1013.4 hPa | 0 mm | - | 376 W/m² | - |
| 1777925717 | 26.67° C | 20% | 1013.5 hPa | 0 mm | - | 497 W/m² | - |
* Rain latest hour (hover to see other rain measurements)
** Current wind speed in m/s (hover to see current wind gust speed)